Simultaneous Nadir Overpasses (SNOs) Predictions

Prediction of SNOs between AQUA and LANDSAT-8 Satellite Orbit:

Table of predicted SNOs for the next 14.0 days since TLE Epoch: 8/15/2025
Index Date (AQUA) Time (AQUA) Lat,Lon (AQUA) SZA (AQUA ) Date (LANDSAT-8) Time (LANDSAT-8) Lat,Lon (LANDSAT-8) SZA (LANDSAT-8 ) Distance(km) Time Diff (sec)
1 08/28/2025 19:44:18 -75.14, 73.23 114.15 08/28/2025 19:43:14 -75.09, 69.97 114.32 93.26 64
2 08/28/2025 20:33:42 75.41,-119.86 66.10 08/28/2025 20:32:33 75.41,-121.52 66.03 46.58 69
3 08/28/2025 21:23:04 -75.70, 46.95 113.63 08/28/2025 21:21:54 -75.69, 46.92 113.65 1.59 70
4 08/28/2025 22:12:23 75.73,-145.45 66.41 08/28/2025 22:11:19 75.71,-145.38 66.38 2.66 64
5 08/28/2025 23:01:40 -75.73, 22.24 113.58 08/28/2025 23:00:47 -75.69, 22.21 113.62 3.56 53
6 08/28/2025 23:50:58 75.70,-170.01 66.41 08/28/2025 23:50:12 75.71,-170.09 66.41 2.65 46
7 08/29/2025 00:40:16 -75.75, -2.47 113.54 08/29/2025 00:39:39 -75.75, -2.36 113.54 3.18 37
8 08/29/2025 01:29:34 75.72, 165.28 66.45 08/29/2025 01:29:05 75.72, 165.19 66.44 2.36 29
9 08/29/2025 02:18:51 -75.72, -27.04 113.54 08/29/2025 02:18:32 -75.75, -27.07 113.52 3.34 19
10 08/29/2025 03:08:10 75.74, 140.56 66.50 08/29/2025 03:07:57 75.77, 140.63 66.52 3.16 13
11 08/29/2025 03:57:27 -75.74, -51.75 113.50 08/29/2025 03:57:25 -75.75, -51.78 113.49 1.41 2
12 08/29/2025 04:46:46 75.77, 115.85 66.54 08/29/2025 04:46:50 75.77, 115.92 66.55 1.86 4
13 08/29/2025 05:36:03 -75.76, -76.46 113.45 08/29/2025 05:36:18 -75.76, -76.49 113.46 1.32 15
14 08/29/2025 06:25:22 75.79, 91.14 66.59 08/29/2025 06:25:43 75.77, 91.20 66.58 2.46 21
15 08/29/2025 07:14:39 -75.79,-101.18 113.41 08/29/2025 07:15:11 -75.76,-101.21 113.43 3.23 32
16 08/29/2025 08:03:57 75.76, 66.57 66.59 08/29/2025 08:04:36 75.78, 66.49 66.61 2.79 39
17 08/29/2025 08:53:15 -75.81,-125.89 113.36 08/29/2025 08:54:03 -75.81,-125.77 113.35 3.18 48
18 08/29/2025 09:42:33 75.78, 41.86 66.63 08/29/2025 09:43:29 75.78, 41.78 66.63 2.26 56
19 08/29/2025 10:31:50 -75.78,-150.45 113.36 08/29/2025 10:32:56 -75.81,-150.49 113.32 3.63 66
20 08/29/2025 11:21:10 75.85, 16.99 66.72 08/29/2025 11:22:21 75.83, 17.21 66.71 6.49 71
21 08/29/2025 12:10:35 -76.24,-176.56 112.93 08/29/2025 12:11:41 -76.21,-173.99 112.86 67.98 66



Historial Predications of SNOs between AQUA and LANDSAT-8
